INTELSAT 17 (IS-17)

Last updated on Nov. 18, 2019, 4:21 a.m. UTC

1 37238U 10065B   19321.44026400  .00000006  00000-0  00000+0 0  9996
2 37238   0.0256 155.7740 0002427  77.1805  47.7543  1.00271547 32811
UTC
Height (km)
Latitude
Longitude
Inclination
Orbital Period
UTC large
Height (km)
Speed (km/s)
/
Latitude / Longitude
Inclination (degrees)
Orbital Period (minutes)
Azimuth
Elevation
Range (km)
Doppler Factor
iOS Compass Heading
iOS Angle

Next 30 passes for location: Hong Kong

Rise time Rise Azimuth (degrees) Set time Set Azimuth (degrees) Duration Max altitude (degrees)

No matching passes for this satellites